Location: American Medical Response
(33.3472°N, 96.5511°W)
Time: 08:42:36
(UTC+00:00)

Lacrosse 5 rocket - Visible Passes

Search period start: 01 July 2022 00:00
Search period end: 11 July 2022 00:00
Orbit: 456 x 629 km, 57.0° (Epoch: 30 June)

Date Brightness Start Highest point End Pass type
(mag) Time Alt. Az. Time Alt. Az. Time Alt. Az.
01 Jul 2.9 03:19:28 10° N 03:22:39 23° NE 03:23:58 20° ENE visible
01 Jul 3.6 04:58:03 10° WNW 04:59:29 19° WNW 04:59:29 19° WNW visible
02 Jul 2.6 03:11:44 10° NNW 03:15:11 29° NE 03:16:39 23° E visible
02 Jul 3.7 04:50:49 10° WNW 04:52:10 17° W 04:52:10 17° W visible
03 Jul 2.1 03:04:02 10° NNW 03:07:43 38° NE 03:09:24 26° E visible
03 Jul 3.8 04:43:45 10° WNW 04:44:55 15° W 04:44:55 15° W visible
04 Jul 1.6 02:56:23 10° NNW 03:00:12 52° NE 03:02:12 26° ESE visible
04 Jul 4.0 04:37:00 10° W 04:37:43 12° WSW 04:37:43 12° WSW visible
05 Jul 1.3 02:48:47 10° NW 02:52:41 71° NE 02:55:04 24° SE visible
06 Jul 1.2 02:41:14 10° NW 02:45:08 83° SW 02:48:00 19° SE visible
07 Jul 1.6 02:33:44 10° NW 02:37:35 60° SW 02:41:00 14° SSE visible
08 Jul 2.2 02:26:18 10° NW 02:30:00 42° SW 02:33:54 10° SSE visible
09 Jul 2.8 02:18:56 10° WNW 02:22:24 31° WSW 02:26:02 10° S visible
10 Jul 3.3 02:11:41 10° WNW 02:14:48 23° WSW 02:18:01 10° S visible
